Airfield :
LOGIN :

Register | Disclaimer

   EN    FR    IT 

 










Legend :    VFR   Marginal VFR   IFR   Intensive IFR   Very Intensive IFR
Visi :
Ceiling :
>= 8 km
>= 3000ft
5 to 8 km
1000 to 3000 ft
1500m to 5 km
500 to 1000 ft
800 to 1500m
200 to 500 ft
< 800m
< 200 ft
Symbols :   Thunderstorms  Fog  Heavy snow  Heavy precipitations  Wind > 20 kt
SIGMETs :     Misc.  Thunderstorms  Icing  Turbulence  Mountain Waves  Volcanic Ashes







- Airport Elevation : 154 ft
- IATA code : SZZ


EPSC - Szczecin Goleniow

CURRENT METAR :
  • 210000Z 07008KT CAVOK M00/M04 Q1022

EXPIRED METARs :
  • 202330Z 07008KT CAVOK M00/M03 Q1022
  • 202300Z 07007KT 040V100 CAVOK M00/M03 Q1022
  • 202230Z 08008KT 040V110 CAVOK 00/M03 Q1022
  • 202200Z 07008KT CAVOK 00/M03 Q1022
  • 202130Z 08007KT 050V110 CAVOK 00/M03 Q1022

TAF TAF EPSC
Valid from the 21 at 00:00 until the 22 at 00:00 UTC


202330Z 2100/2124 08009KT CAVOK
No reported NOTAMs for that airfield.



MET'MAP, your aeronautical weather chart ! - Copyright ORBIFLY December 2007 - Disclaimer

ORBIFLY MET'MAP TEAM :

Programming & Development : Alexandra Zaïnal
Concept & Development : Baudouin d'Aumeries
Co-Development & Prog : Marc-Olivier Méhu
Technical & hardware support : Manuel Goepfert

Contact : metmap@orbifly.com




SOURCES & CREDITS :

   NOAA